Location: Austin
(30.3000°N, 97.7500°W)
Time: 12:00:30
(UTC-05:00)

Cosmos 1953 - Pass Details

Date: 08 April 2026
Orbit: 471 x 486 km, 82.5° (Epoch: 11 April)

Event Time Altitude Azimuth Distance (km) Brightness Sun altitude
Rises 20:31:32 0° 162° (SSE) 2,498 5.4 -8.7°
Reaches altitude 10° 20:33:49 10° 150° (SSE) 1,625 4.3 -9.2°
Maximum altitude 20:36:50 26° 91° (E) 948 3.0 -9.8°
Drops below altitude 10° 20:39:52 10° 33° (NNE) 1,635 4.6 -10.4°
Sets 20:42:10 0° 21° (NNE) 2,517 5.6 -10.9°
